[[{"header":{"parameterUnit":"m.s-1","parameterCategory":1,"la1":30.2991,"la2":30.254,"lo1":-89.0895,"lo2":-89.0444,"dy":0.0017,"dx":0.0017,"nx":28,"ny":28,"refTime":"2025-05-29T03:00:00:Z","depth":0,"parameterNumber":2,"parameterNumberName":"U-component_of_WINDS"},"data":[0,0,0,0,0,0,0,0,0,0,0,0,0,0,0,0,0,0,0,0,0,0,0,0,0,0,0,0,0,0,0,0,0,0,0,0,0,0,0,0,0,0,0,0,0,0,0,0,0,0,0,0,0,0,0,0,0,0,3.1956,3.1959,0,3.2163,3.2165,3.2168,3.2236,3.2236,3.2235,3.2234,3.2438,3.2444,3.245,0,0,0,0,0,0,0,0,0,0,0,0,0,3.1616,3.1622,3.1956,3.1959,3.1961,3.2163,3.2165,3.2168,3.2237,3.2235,3.2234,3.2233,3.2436,3.2443,3.2451,0,0,0,0,0,0,0,0,0,0,0,0,0,3.1787,3.1624,3.1956,3.202,3.2028,3.2162,3.2166,3.2169,3.2237,3.2235,3.2234,3.2233,3.2434,3.2443,3.2452,3.2535,0,0,3.2481,3.2485,0,0,0,0,0,0,0,0,3.1778,3.18,3.2008,3.2016,3.2025,3.2173,3.2121,3.2292,3.2237,3.2157,3.2234,3.2232,3.235,3.2367,3.2408,3.2545,3.2554,3.2481,3.2487,3.2491,3.2494,0,0,0,0,0,0,0,3.1766,3.1791,3.2038,3.2011,3.2021,3.2037,3.206,3.2153,3.2258,3.2164,3.217,3.2193,3.2355,3.2399,3.2413,3.2557,3.2481,3.2489,3.2495,3.2499,3.2778,3.278,0,0,0,0,0,0,3.1744,3.1781,3.2031,3.2044,3.1896,3.2044,3.207,3.2126,3.2257,3.2276,3.2194,3.2196,3.2383,3.2402,3.2421,3.2531,3.2491,3.25,3.2505,3.2776,3.2779,3.2781,0,0,0,0,0,0,3.1736,3.1766,3.2023,3.1914,3.1948,3.2051,3.2114,3.2131,3.2175,3.2281,3.2299,3.222,3.2383,3.2407,3.2508,3.2539,3.2504,3.2512,3.2774,3.2777,3.278,3.2749,0,0,0,0,0,0,3.1726,3.1762,3.1796,3.1915,3.1954,3.2108,3.2116,3.2136,3.2192,3.2196,3.231,3.2327,3.2384,3.2494,3.2517,3.2551,3.252,3.2772,3.2775,3.2779,3.2748,3.2751,3.2753,0,0,0,0,0,3.1714,3.1776,3.1797,3.1827,3.1998,3.2109,3.2132,3.2198,3.2194,3.2229,3.2297,3.2324,3.2531,3.2503,3.2531,3.2568,3.277,3.2774,3.2778,3.2747,3.275,3.2753,0,0,0,0,0,0,3.1654,3.1793,3.1817,3.192,3.2003,3.2121,3.2166,3.2198,3.2281,3.2281,3.2358,3.2383,3.2479,3.2533,3.2499,3.2658,3.2652,3.2662,3.2619,3.2623,3.2625,3.2611,3.2528,0,0,0,0,0,3.1654,3.1734,3.185,3.193,3.1971,3.2061,3.2112,3.2156,3.2244,3.2278,3.2354,3.2436,3.2521,3.2575,3.2658,3.2756,3.2784,3.2795,3.2798,3.2799,3.2807,3.2868,3.2876,3.2794,3.2794,3.2794,0,0,3.1652,3.1738,3.1783,3.192,3.199,3.2071,3.209,3.2174,3.2235,3.229,3.2392,3.245,3.2548,3.2649,3.2697,3.2697,3.2836,3.2805,3.2805,3.2812,3.2873,3.2881,3.2888,3.2797,3.2796,3.2796,0,0,3.1691,3.1763,3.184,3.1911,3.2017,3.2078,3.2096,3.2211,3.2253,3.2357,3.2402,3.2475,3.2617,3.2687,3.2741,3.2812,3.2841,3.2837,3.285,3.2908,3.2915,3.2921,3.295,3.2959,3.2844,3.2844,3.2844,0,3.1675,3.1802,3.1874,3.1959,3.2019,3.2077,3.2156,3.2219,3.2346,3.2386,3.2385,3.257,3.2638,3.2759,3.2778,3.2818,3.2843,3.2824,3.2909,3.2915,3.2922,3.2951,3.2961,3.2843,3.2843,3.2843,3.2843,0,3.1779,3.1866,3.1915,3.2041,3.2106,3.2186,3.2271,3.2329,3.2368,3.2429,3.2536,3.2622,3.2726,3.2758,3.2795,3.2885,3.2883,3.2894,3.289,3.2928,3.2957,3.2968,3.2842,3.2842,3.2842,3.2842,0,0,3.1784,3.1954,3.197,3.2031,3.2155,3.2223,3.2307,3.2412,3.2462,3.2547,3.2621,3.2744,3.2757,3.2818,3.2864,3.2915,3.2972,3.2921,3.2925,3.293,3.3082,3.3074,3.3085,3.2992,3.2994,3.2996,3.3075,0,3.1842,3.1998,3.2068,3.2192,3.2275,3.2334,3.2408,3.2491,3.2551,3.263,3.2695,3.2783,3.2791,3.283,3.2883,3.2953,3.3004,3.2948,3.3062,3.3065,3.3039,3.31,3.3091,3.3161,3.3086,3.3088,3.3089,0,3.193,3.2022,3.2155,3.2275,3.2312,3.2377,3.2482,3.2556,3.2653,3.2694,3.2765,3.281,3.2902,3.2892,3.3021,3.2982,3.3033,3.3075,3.3079,3.3094,3.308,3.3118,3.3184,3.3196,3.3106,3.3105,3.3104,0,3.1925,3.2081,3.2183,3.2232,3.2372,3.2418,3.2477,3.2574,3.2634,3.2725,3.2766,3.2865,3.2919,3.2995,3.3067,3.3052,3.319,3.3185,3.3228,3.3226,3.3255,3.3252,3.3333,3.3283,3.3283,3.3283,3.3283,0,3.1983,3.2063,3.2184,3.2246,3.2339,3.2418,3.2507,3.2571,3.2657,3.2734,3.2788,3.2859,3.2948,3.303,3.3086,3.3187,3.321,3.3246,3.3261,3.3243,3.3239,3.3278,3.3276,3.3286,3.3285,3.3285,3.3284,0,3.1993,3.2077,3.2192,3.2318,3.2351,3.2414,3.2521,3.2584,3.2648,3.2745,3.2772,3.2872,3.2972,3.3052,3.318,3.3218,3.3326,3.334,3.3294,3.3302,3.3342,3.3338,3.3452,3.3472,3.3406,3.3407,3.3407,0,3.2026,3.209,3.2224,3.2281,3.2342,3.2432,3.2496,3.2577,3.2641,3.276,3.2809,3.2914,3.3002,3.3159,3.3244,3.3344,3.3363,3.3396,3.3378,3.336,3.3368,3.3364,3.3373,3.3398,3.3398,3.3399,3.3399,0,3.2077,3.2117,3.2207,3.2315,3.239,3.2477,3.2565,3.2608,3.2705,3.2775,3.288,3.2948,3.3084,3.3188,3.3298,3.336,3.3397,3.3404,3.342,3.3404,3.3376,3.3396,3.3302,3.3401,3.3401,3.3401,3.3401,3.3401,3.2102,3.2164,3.2269,3.237,3.2446,3.2528,3.2596,3.2671,3.2761,3.2879,3.2921,3.303,3.313,3.3283,3.3345,3.3432,3.3435,3.3456,3.3463,3.3467,3.3468,3.3361,3.3452,3.3452,3.3452,3.3452,3.3452,0,3.2159,3.2231,3.2323,3.2447,3.2527,3.2558,3.2658,3.2723,3.2819,3.291,3.2997,3.312,3.3223,3.3317,3.3425,3.3476,3.3496,3.3502,3.35,3.3515,3.3457,3.3434,3.3484,3.3484,3.3484,3.3484,3.3484,3.3484,3.2198,3.2305,3.2358,3.2504,3.2576,3.2685,3.2741,3.2818,3.2892,3.3027,3.3115,3.3176,3.327,3.3386,3.3482,3.3508,3.3546,3.3548,3.3577,3.3522,3.3518,3.3514,3.3493,3.3555,3.3555,3.3629,3.3629,3.363]},{"header":{"parameterUnit":"m.s-1","parameterCategory":1,"la1":30.2991,"la2":30.254,"lo1":-89.0895,"lo2":-89.0444,"dy":0.0017,"dx":0.0017,"nx":28,"ny":28,"refTime":"2025-05-29T03:00:00:Z","depth":0,"parameterNumber":3,"parameterNumberName":"V-component_of_WINDS"},"data":[0,0,0,0,0,0,0,0,0,0,0,0,0,0,0,0,0,0,0,0,0,0,0,0,0,0,0,0,0,0,0,0,0,0,0,0,0,0,0,0,0,0,0,0,0,0,0,0,0,0,0,0,0,0,0,0,0,0,-4.6636,-4.6632,0,-4.624,-4.6236,-4.6231,-4.6022,-4.6021,-4.6021,-4.6021,-4.56,-4.559,-4.5579,0,0,0,0,0,0,0,0,0,0,0,0,0,-4.7194,-4.7185,-4.6637,-4.6632,-4.6627,-4.6241,-4.6235,-4.623,-4.6022,-4.6021,-4.6021,-4.6021,-4.5604,-4.5591,-4.5578,0,0,0,0,0,0,0,0,0,0,0,0,0,-4.689,-4.7182,-4.6638,-4.6477,-4.6459,-4.6242,-4.6235,-4.6228,-4.6022,-4.6021,-4.6021,-4.6021,-4.5608,-4.5592,-4.5576,-4.5484,0,0,-4.5526,-4.5519,0,0,0,0,0,0,0,0,-4.6907,-4.687,-4.6505,-4.6488,-4.6467,-4.618,-4.6277,-4.5978,-4.6022,-4.6187,-4.6021,-4.602,-4.5792,-4.5761,-4.5687,-4.5465,-4.5447,-4.5524,-4.5515,-4.5508,-4.5503,0,0,0,0,0,0,0,-4.6929,-4.6885,-4.6479,-4.65,-4.6477,-4.6418,-4.6374,-4.622,-4.5997,-4.6173,-4.6157,-4.6113,-4.5782,-4.5703,-4.5676,-4.544,-4.5525,-4.551,-4.55,-4.5494,-4.5112,-4.5111,0,0,0,0,0,0,-4.6978,-4.6905,-4.6492,-4.6467,-4.6691,-4.6408,-4.636,-4.6272,-4.5998,-4.5956,-4.6114,-4.6105,-4.5732,-4.5695,-4.566,-4.5528,-4.5508,-4.5492,-4.5483,-4.5112,-4.5111,-4.5111,0,0,0,0,0,0,-4.6991,-4.6943,-4.6508,-4.6681,-4.6621,-4.6399,-4.6303,-4.6265,-4.6186,-4.5954,-4.5911,-4.6077,-4.573,-4.5683,-4.5528,-4.5511,-4.5485,-4.547,-4.5112,-4.5112,-4.5111,-4.5269,0,0,0,0,0,0,-4.7008,-4.6949,-4.6918,-4.6682,-4.6613,-4.6389,-4.6302,-4.6257,-4.6161,-4.6145,-4.5907,-4.5867,-4.5726,-4.5554,-4.5512,-4.5488,-4.5457,-4.5113,-4.5112,-4.5111,-4.5264,-4.5273,-4.5282,0,0,0,0,0,-4.7029,-4.6976,-4.6917,-4.6868,-4.657,-4.6389,-4.6349,-4.6191,-4.6161,-4.6122,-4.5971,-4.5875,-4.5521,-4.554,-4.5491,-4.5462,-4.5113,-4.5112,-4.5111,-4.526,-4.5272,-4.5282,0,0,0,0,0,0,-4.7211,-4.6943,-4.6874,-4.6746,-4.6592,-4.6354,-4.6302,-4.621,-4.6058,-4.605,-4.5856,-4.5803,-4.5665,-4.5547,-4.5574,-4.5353,-4.5306,-4.5295,-4.5435,-4.5445,-4.5454,-4.5483,-4.5444,0,0,0,0,0,-4.7238,-4.712,-4.6888,-4.6797,-4.6724,-4.6527,-4.6442,-4.6334,-4.6165,-4.6098,-4.5936,-4.5771,-4.5621,-4.5527,-4.5377,-4.5246,-4.5186,-4.5201,-4.521,-4.5218,-4.521,-4.5124,-4.5125,-4.5109,-4.5109,-4.5109,0,0,-4.7289,-4.7127,-4.7064,-4.6829,-4.6698,-4.6572,-4.6473,-4.6347,-4.6249,-4.6077,-4.592,-4.5796,-4.5597,-4.5453,-4.5381,-4.5351,-4.5202,-4.5217,-4.5226,-4.5212,-4.5123,-4.5125,-4.5127,-4.5108,-4.5108,-4.5108,0,0,-4.7317,-4.7187,-4.7093,-4.6963,-4.6765,-4.6634,-4.6612,-4.6386,-4.6297,-4.6138,-4.6004,-4.5882,-4.5631,-4.5493,-4.539,-4.536,-4.5262,-4.5316,-4.5361,-4.528,-4.5281,-4.5281,-4.5264,-4.5261,-4.5309,-4.531,-4.531,0,-4.7404,-4.7217,-4.7055,-4.6934,-4.6831,-4.6672,-4.657,-4.645,-4.6213,-4.6142,-4.6113,-4.5789,-4.5645,-4.5462,-4.5454,-4.5379,-4.534,-4.5341,-4.5295,-4.5293,-4.5291,-4.5272,-4.5267,-4.5317,-4.5316,-4.5316,-4.5315,0,-4.7329,-4.72,-4.7146,-4.6924,-4.6815,-4.6705,-4.6519,-4.6427,-4.6326,-4.6196,-4.603,-4.5852,-4.566,-4.5608,-4.5509,-4.5408,-4.5395,-4.5334,-4.5281,-4.5303,-4.5281,-4.5273,-4.5328,-4.5325,-4.5323,-4.5321,0,0,-4.7463,-4.715,-4.7133,-4.7027,-4.6795,-4.6688,-4.6567,-4.6382,-4.6303,-4.6143,-4.6031,-4.5819,-4.5759,-4.5642,-4.5524,-4.5454,-4.5432,-4.5398,-4.539,-4.5406,-4.5301,-4.5347,-4.5342,-4.5367,-4.5365,-4.5363,-4.5316,0,-4.7454,-4.7235,-4.7083,-4.692,-4.6793,-4.6638,-4.653,-4.6373,-4.6246,-4.6114,-4.5971,-4.5822,-4.5758,-4.5685,-4.5608,-4.5452,-4.5408,-4.5453,-4.5253,-4.5248,-4.5305,-4.5332,-4.538,-4.5345,-4.5307,-4.5306,-4.5305,0,-4.7415,-4.7262,-4.7088,-4.6864,-4.6805,-4.6713,-4.6527,-4.6407,-4.6221,-4.6132,-4.6001,-4.588,-4.5736,-4.5699,-4.5494,-4.5528,-4.5436,-4.5347,-4.5341,-4.5313,-4.5276,-4.53,-4.533,-4.5324,-4.5291,-4.5292,-4.5293,0,-4.7522,-4.7273,-4.7134,-4.7049,-4.6786,-4.6723,-4.6609,-4.6424,-4.632,-4.6156,-4.6085,-4.5906,-4.5807,-4.5667,-4.5498,-4.5487,-4.5307,-4.5257,-4.5223,-4.5227,-4.519,-4.5194,-4.5202,-4.5139,-4.5139,-4.5139,-4.514,0,-4.7526,-4.7423,-4.7178,-4.7093,-4.697,-4.6793,-4.6675,-4.6547,-4.6383,-4.6263,-4.6117,-4.6007,-4.5793,-4.5654,-4.552,-4.5366,-4.5323,-4.5243,-4.5207,-4.5253,-4.5263,-4.5188,-4.5185,-4.5138,-4.5138,-4.5138,-4.5139,0,-4.7624,-4.7457,-4.7295,-4.7059,-4.6997,-4.6917,-4.6711,-4.6617,-4.6482,-4.6333,-4.6287,-4.6072,-4.5901,-4.5719,-4.5486,-4.5395,-4.5245,-4.5199,-4.531,-4.5289,-4.5264,-4.5267,-4.5221,-4.5202,-4.5158,-4.5159,-4.5159,0,-4.7636,-4.7553,-4.7309,-4.7221,-4.7112,-4.6973,-4.6867,-4.6687,-4.6581,-4.636,-4.6291,-4.611,-4.5956,-4.5688,-4.5506,-4.5324,-4.5269,-4.5265,-4.524,-4.5287,-4.5262,-4.5268,-4.5255,-4.5273,-4.5274,-4.5275,-4.5276,0,-4.7671,-4.7591,-4.7448,-4.7273,-4.7151,-4.7004,-4.685,-4.6784,-4.6572,-4.6459,-4.6285,-4.6165,-4.5927,-4.5745,-4.5541,-4.5415,-4.5307,-4.5286,-4.5267,-4.5312,-4.5377,-4.5336,-4.5327,-4.5287,-4.5286,-4.5285,-4.5284,-4.5284,-4.7721,-4.7639,-4.7453,-4.7295,-4.7161,-4.702,-4.6919,-4.6772,-4.6625,-4.642,-4.6321,-4.6144,-4.5952,-4.5668,-4.5544,-4.5398,-4.5367,-4.5342,-4.5334,-4.533,-4.5339,-4.5405,-4.5361,-4.536,-4.536,-4.5359,-4.5359,0,-4.7744,-4.7617,-4.7474,-4.7265,-4.7138,-4.7054,-4.6877,-4.6775,-4.6624,-4.6457,-4.6308,-4.6103,-4.5925,-4.573,-4.5539,-4.5459,-4.5404,-4.5414,-4.5416,-4.5387,-4.5381,-4.5414,-4.5461,-4.5461,-4.5461,-4.5461,-4.5461,-4.5461,-4.7741,-4.7595,-4.7493,-4.7275,-4.7146,-4.6977,-4.6882,-4.6748,-4.6613,-4.6393,-4.6247,-4.6122,-4.594,-4.5734,-4.5564,-4.551,-4.5444,-4.5468,-4.5399,-4.5397,-4.5389,-4.5381,-4.5411,-4.5456,-4.5456,-4.5416,-4.5416,-4.5416]}]]